• In Netherlands
  • List of Countries
  • For 7 days
  • Water Temperature
  • Satellite Maps
  • Weather Map
  • Weather Widgets
  • user-avatar
    Login

    Hourly Weather Liege

    Today, 20 September, Wednesday

    Time Temperature Precipitation Wind Pressure Humidity
    00:00 +10°C° 0 mm 1 mps 756 mmHg 93%
    01:00 +9°C° 0 mm 2 mps 756 mmHg 94%
    02:00 +8°C° 0 mm 2 mps 756 mmHg 95%
    03:00 +8°C° 0 mm 2 mps 756 mmHg 96%
    04:00 +8°C° 0 mm 2 mps 756 mmHg 96%
    05:00 +9°C° 0 mm 2 mps 756 mmHg 95%
    06:00 +9°C° 0 mm 2 mps 756 mmHg 95%
    07:00 +10°C° 0 mm 2 mps 756 mmHg 90%
    08:00 +12°C° 0 mm 3 mps 757 mmHg 85%
    09:00 +13°C° 0 mm 3 mps 757 mmHg 80%
    10:00 +14°C° 0.1 mm 3 mps 756 mmHg 75%
    11:00 +16°C° 0.1 mm 3 mps 756 mmHg 69%
    12:00 +16°C° 0 mm 3 mps 756 mmHg 67%
    13:00 +17°C° 0.1 mm 3 mps 756 mmHg 68%
    14:00 +17°C° 0.1 mm 3 mps 756 mmHg 68%
    15:00 +17°C° 0.1 mm 3 mps 756 mmHg 69%
    16:00 +15°C° 0 mm 2 mps 756 mmHg 75%
    17:00 +14°C° 0 mm 2 mps 756 mmHg 82%
    18:00 +13°C° 0 mm 1 mps 756 mmHg 88%
    19:00 +12°C° 0 mm 1 mps 756 mmHg 89%
    20:00 +12°C° 0 mm 1 mps 756 mmHg 90%
    21:00 +10°C° 0 mm 2 mps 756 mmHg 92%
    22:00 +10°C° 0 mm 2 mps 756 mmHg 92%
    23:00 +10°C° 0 mm 2 mps 756 mmHg 92%

    Tomorrow, 21 September, Thursday

    Time Temperature Precipitation Wind Pressure Humidity
    00:00 +9°C° 0 mm 2 mps 756 mmHg 92%
    01:00 +9°C° 0 mm 2 mps 756 mmHg 92%
    02:00 +9°C° 0 mm 2 mps 756 mmHg 91%
    03:00 +9°C° 0 mm 2 mps 756 mmHg 91%
    04:00 +9°C° 0 mm 2 mps 756 mmHg 91%
    05:00 +9°C° 0 mm 2 mps 756 mmHg 90%
    06:00 +9°C° 0 mm 2 mps 756 mmHg 90%
    07:00 +12°C° 0 mm 2 mps 756 mmHg 82%
    08:00 +14°C° 0 mm 2 mps 756 mmHg 75%
    09:00 +16°C° 0 mm 2 mps 756 mmHg 68%
    10:00 +17°C° 0 mm 2 mps 755 mmHg 63%
    11:00 +18°C° 0 mm 2 mps 755 mmHg 59%
    12:00 +19°C° 0 mm 3 mps 755 mmHg 55%
    13:00 +20°C° 0 mm 2 mps 755 mmHg 55%
    14:00 +20°C° 0 mm 2 mps 754 mmHg 56%
    15:00 +20°C° 0 mm 2 mps 754 mmHg 57%
    16:00 +18°C° 0 mm 2 mps 754 mmHg 64%
    17:00 +17°C° 0 mm 2 mps 754 mmHg 71%
    18:00 +15°C° 0 mm 1 mps 754 mmHg 78%
    19:00 +14°C° 0 mm 2 mps 754 mmHg 80%
    20:00 +14°C° 0 mm 2 mps 754 mmHg 82%
    21:00 +13°C° 0 mm 2 mps 755 mmHg 84%
    22:00 +13°C° 0 mm 2 mps 755 mmHg 84%
    23:00 +12°C° 0 mm 2 mps 755 mmHg 85%

    Day after tomorrow, 22 September, Friday

    Time Temperature Precipitation Wind Pressure Humidity
    00:00 +12°C° 0 mm 2 mps 755 mmHg 85%
    01:00 +12°C° 0 mm 2 mps 755 mmHg 85%
    02:00 +12°C° 0 mm 2 mps 755 mmHg 85%
    03:00 +10°C° 0 mm 2 mps 755 mmHg 85%
    04:00 +10°C° 0 mm 2 mps 755 mmHg 85%
    05:00 +12°C° 0 mm 2 mps 755 mmHg 86%
    06:00 +12°C° 0 mm 2 mps 755 mmHg 86%
    07:00 +13°C° 0 mm 2 mps 755 mmHg 82%
    08:00 +15°C° 0 mm 2 mps 756 mmHg 79%
    09:00 +16°C° 0 mm 2 mps 756 mmHg 76%
    10:00 +17°C° 0 mm 2 mps 756 mmHg 75%
    11:00 +17°C° 0 mm 3 mps 756 mmHg 75%
    12:00 +18°C° 0 mm 3 mps 756 mmHg 74%
    13:00 +18°C° 0.1 mm 3 mps 756 mmHg 73%
    14:00 +18°C° 0.1 mm 3 mps 756 mmHg 72%
    15:00 +18°C° 0.1 mm 3 mps 757 mmHg 72%
    16:00 +16°C° 0 mm 3 mps 757 mmHg 77%
    17:00 +14°C° 0 mm 2 mps 757 mmHg 82%
    18:00 +13°C° 0 mm 1 mps 757 mmHg 87%
    19:00 +12°C° 0 mm 1 mps 758 mmHg 88%
    20:00 +11°C° 0 mm 1 mps 758 mmHg 89%
    21:00 +10°C° 0 mm 1 mps 759 mmHg 90%
    22:00 +9°C° 0 mm 0 mps 759 mmHg 90%
    23:00 +9°C° 0 mm 0 mps 759 mmHg 90%

    23 September, Saturday

    Time Temperature Precipitation Wind Pressure Humidity
    00:00 +8°C° 0 mm 0 mps 759 mmHg 90%
    01:00 +8°C° 0 mm 0 mps 759 mmHg 90%
    02:00 +8°C° 0 mm 0 mps 759 mmHg 90%
    03:00 +9°C° 0 mm 1 mps 759 mmHg 91%
    04:00 +8°C° 0 mm 1 mps 759 mmHg 90%
    05:00 +8°C° 0 mm 1 mps 759 mmHg 89%
    06:00 +7°C° 0 mm 0 mps 759 mmHg 89%
    07:00 +11°C° 0 mm 1 mps 759 mmHg 80%
    08:00 +13°C° 0 mm 1 mps 759 mmHg 70%
    09:00 +16°C° 0 mm 1 mps 759 mmHg 61%
    10:00 +18°C° 0 mm 1 mps 759 mmHg 55%
    11:00 +19°C° 0 mm 1 mps 758 mmHg 50%
    12:00 +20°C° 0 mm 1 mps 758 mmHg 44%
    13:00 +20°C° 0 mm 1 mps 758 mmHg 44%
    14:00 +20°C° 0 mm 1 mps 757 mmHg 45%
    15:00 +20°C° 0 mm 1 mps 757 mmHg 45%
    16:00 +18°C° 0 mm 1 mps 757 mmHg 52%
    17:00 +15°C° 0 mm 2 mps 757 mmHg 58%
    18:00 +13°C° 0 mm 2 mps 757 mmHg 65%
    19:00 +12°C° 0 mm 1 mps 757 mmHg 67%
    20:00 +12°C° 0 mm 1 mps 757 mmHg 68%
    21:00 +11°C° 0 mm 1 mps 757 mmHg 70%
    22:00 +11°C° 0 mm 1 mps 757 mmHg 72%
    23:00 +10°C° 0 mm 1 mps 757 mmHg 73%

    24 September, Sunday

    Time Temperature Precipitation Wind Pressure Humidity
    00:00 +10°C° 0 mm 1 mps 757 mmHg 75%
    01:00 +10°C° 0 mm 1 mps 757 mmHg 77%
    02:00 +10°C° 0 mm 1 mps 757 mmHg 79%
    03:00 +10°C° 0 mm 1 mps 757 mmHg 82%
    04:00 +10°C° 0 mm 1 mps 757 mmHg 83%
    05:00 +10°C° 0 mm 1 mps 757 mmHg 84%
    06:00 +10°C° 0 mm 1 mps 757 mmHg 86%
    07:00 +12°C° 0 mm 2 mps 757 mmHg 79%
    08:00 +15°C° 0 mm 2 mps 757 mmHg 73%
    09:00 +17°C° 0 mm 2 mps 757 mmHg 66%
    10:00 +18°C° 0 mm 2 mps 757 mmHg 62%
    11:00 +20°C° 0 mm 2 mps 757 mmHg 58%
    12:00 +21°C° 0 mm 2 mps 757 mmHg 53%
    13:00 +21°C° 0 mm 2 mps 756 mmHg 54%
    14:00 +21°C° 0 mm 2 mps 756 mmHg 55%
    15:00 +21°C° 0 mm 2 mps 756 mmHg 56%
    16:00 +20°C° 0 mm 2 mps 756 mmHg 63%
    17:00 +18°C° 0 mm 2 mps 756 mmHg 69%
    18:00 +16°C° 0 mm 2 mps 756 mmHg 76%
    19:00 +15°C° 0 mm 2 mps 756 mmHg 79%
    20:00 +15°C° 0 mm 2 mps 756 mmHg 81%
    21:00 +14°C° 0 mm 2 mps 756 mmHg 83%
    22:00 +14°C° 0 mm 2 mps 756 mmHg 84%
    23:00 +13°C° 0 mm 2 mps 756 mmHg 84%

    25 September, Monday

    Time Temperature Precipitation Wind Pressure Humidity
    00:00 +13°C° 0 mm 2 mps 756 mmHg 85%
    01:00 +13°C° 0 mm 2 mps 755 mmHg 86%
    02:00 +12°C° 0 mm 2 mps 755 mmHg 87%
    03:00 +12°C° 0 mm 2 mps 755 mmHg 88%
    04:00 +12°C° 0 mm 2 mps 755 mmHg 88%
    05:00 +11°C° 0 mm 3 mps 755 mmHg 88%
    06:00 +11°C° 0 mm 3 mps 755 mmHg 88%
    07:00 +13°C° 0 mm 3 mps 755 mmHg 81%
    08:00 +16°C° 0 mm 3 mps 754 mmHg 75%
    09:00 +18°C° 0 mm 4 mps 754 mmHg 68%
    10:00 +20°C° 0 mm 4 mps 754 mmHg 64%
    11:00 +21°C° 0 mm 3 mps 754 mmHg 59%
    12:00 +22°C° 0 mm 3 mps 754 mmHg 55%
    13:00 +22°C° 0 mm 3 mps 753 mmHg 56%
    14:00 +22°C° 0 mm 3 mps 753 mmHg 57%
    15:00 +22°C° 0 mm 3 mps 753 mmHg 58%
    16:00 +20°C° 0 mm 3 mps 753 mmHg 64%
    17:00 +18°C° 0 mm 2 mps 753 mmHg 69%
    18:00 +17°C° 0 mm 2 mps 753 mmHg 75%
    19:00 +16°C° 0 mm 2 mps 753 mmHg 76%
    20:00 +15°C° 0 mm 2 mps 753 mmHg 78%
    21:00 +14°C° 0 mm 2 mps 754 mmHg 80%
    22:00 +14°C° 0 mm 2 mps 754 mmHg 82%
    23:00 +13°C° 0 mm 2 mps 754 mmHg 84%
    Show more